[[{"header":{"parameterUnit":"m.s-1","parameterCategory":1,"la1":30.2991,"la2":30.254,"lo1":-89.0895,"lo2":-89.0444,"dy":0.0017,"dx":0.0017,"nx":28,"ny":28,"refTime":"2024-04-14T03:00:00:Z","depth":0,"parameterNumber":2,"parameterNumberName":"U-component_of_WINDS"},"data":[0,0,0,0,0,0,0,0,0,0,0,0,0,0,0,0,0,0,0,0,0,0,0,0,0,0,0,0,0,0,0,0,0,0,0,0,0,0,0,0,0,0,0,0,0,0,0,0,0,0,0,0,0,0,0,0,0,0,1.3917,1.3919,0,1.4072,1.4074,1.4075,1.4121,1.412,1.412,1.4119,1.4278,1.4283,1.4288,0,0,0,0,0,0,0,0,0,0,0,0,0,1.366,1.3664,1.3917,1.3919,1.3921,1.4072,1.4074,1.4076,1.4121,1.412,1.4119,1.4118,1.4276,1.4282,1.4288,0,0,0,0,0,0,0,0,0,0,0,0,0,1.3789,1.3666,1.3917,1.3962,1.3967,1.4071,1.4074,1.4077,1.4122,1.412,1.4119,1.4118,1.4274,1.4282,1.4289,1.436,0,0,1.4312,1.4315,0,0,0,0,0,0,0,0,1.3781,1.3798,1.3953,1.3959,1.3965,1.4076,1.4042,1.4171,1.4122,1.4063,1.4119,1.4117,1.4212,1.4224,1.4256,1.4367,1.4374,1.4313,1.4317,1.432,1.4323,0,0,0,0,0,0,0,1.3772,1.3792,1.3978,1.3955,1.3963,1.3974,1.3991,1.4066,1.4142,1.4068,1.4072,1.4089,1.4215,1.4249,1.426,1.4376,1.4313,1.4319,1.4324,1.4327,1.455,1.4552,0,0,0,0,0,0,1.3756,1.3784,1.3973,1.3983,1.3868,1.3979,1.3998,1.4042,1.4142,1.4156,1.409,1.4091,1.4237,1.4251,1.4266,1.4353,1.432,1.4327,1.4332,1.4549,1.4551,1.4552,0,0,0,0,0,0,1.375,1.3772,1.3967,1.3885,1.391,1.3985,1.4033,1.4045,1.4079,1.4158,1.4172,1.4111,1.4236,1.4255,1.4335,1.436,1.4331,1.4338,1.4547,1.455,1.4552,1.453,0,0,0,0,0,0,1.3743,1.377,1.3798,1.3885,1.3914,1.4034,1.4035,1.4049,1.4092,1.4094,1.4182,1.4195,1.4237,1.4324,1.4343,1.4369,1.4344,1.4545,1.4548,1.4551,1.4529,1.4531,1.4533,0,0,0,0,0,1.3733,1.3786,1.3799,1.3822,1.3951,1.4036,1.4053,1.41,1.4094,1.4122,1.4173,1.4192,1.4354,1.4332,1.4353,1.4383,1.4544,1.4548,1.4551,1.4528,1.453,1.4533,0,0,0,0,0,0,1.3701,1.3799,1.3814,1.3897,1.3957,1.4043,1.408,1.4101,1.4165,1.4165,1.4221,1.424,1.4315,1.4357,1.4331,1.4455,1.445,1.4457,1.4425,1.4428,1.443,1.4418,1.435,0,0,0,0,0,1.3703,1.3764,1.3846,1.3911,1.3941,1.4005,1.4044,1.4075,1.414,1.4166,1.4222,1.4285,1.435,1.4391,1.4456,1.4535,1.4554,1.4566,1.4568,1.4569,1.4575,1.4618,1.4623,1.4563,1.4563,1.4563,0,0,1.3709,1.377,1.3805,1.3906,1.3957,1.4018,1.4027,1.4091,1.4137,1.4176,1.4254,1.4298,1.4371,1.445,1.4488,1.4488,1.4595,1.4573,1.4574,1.4579,1.4622,1.4627,1.4632,1.4565,1.4565,1.4565,0,0,1.3751,1.3803,1.3862,1.3912,1.3989,1.4031,1.4045,1.4127,1.4157,1.4236,1.4266,1.4321,1.4432,1.4483,1.4523,1.4581,1.46,1.46,1.4611,1.4652,1.4657,1.4661,1.468,1.4687,1.4606,1.4606,1.4606,0,1.3748,1.3841,1.389,1.3953,1.3995,1.4033,1.4092,1.4139,1.4232,1.426,1.4258,1.4397,1.4449,1.454,1.4553,1.4585,1.4602,1.459,1.4652,1.4657,1.4662,1.4681,1.4688,1.4605,1.4605,1.4605,1.4605,0,1.3834,1.3898,1.3936,1.4024,1.4071,1.4132,1.4189,1.4231,1.4257,1.4299,1.4378,1.4442,1.4519,1.4543,1.457,1.4637,1.4634,1.4641,1.4637,1.4666,1.4685,1.4693,1.4604,1.4605,1.4605,1.4605,0,0,1.386,1.3972,1.3986,1.4025,1.4111,1.4161,1.4223,1.4297,1.4331,1.4394,1.4446,1.4538,1.4545,1.459,1.4623,1.4659,1.4699,1.4663,1.4665,1.4666,1.4774,1.4767,1.4775,1.4712,1.4714,1.4715,1.4767,0,1.3911,1.4022,1.4067,1.4157,1.4216,1.4251,1.4305,1.4362,1.4403,1.4458,1.4503,1.4567,1.4572,1.4599,1.4637,1.4686,1.4721,1.4683,1.4761,1.4763,1.474,1.4785,1.4778,1.4824,1.4775,1.4777,1.4777,0,1.3986,1.4047,1.4143,1.422,1.4246,1.4293,1.4364,1.4417,1.4482,1.4509,1.4559,1.4589,1.4654,1.4645,1.4735,1.4708,1.4742,1.4771,1.4774,1.4782,1.4771,1.4793,1.484,1.4846,1.479,1.4789,1.4788,0,1.3993,1.41,1.4171,1.4204,1.4295,1.4327,1.4367,1.4432,1.4473,1.4535,1.4561,1.463,1.4667,1.472,1.4767,1.4757,1.4851,1.4847,1.4874,1.4873,1.4892,1.489,1.4945,1.4916,1.4916,1.4916,1.4916,0,1.4044,1.4101,1.4175,1.4218,1.4282,1.4332,1.4394,1.4436,1.4493,1.4545,1.458,1.4628,1.4688,1.4743,1.478,1.4848,1.4865,1.4888,1.4897,1.4884,1.4881,1.4907,1.4904,1.4918,1.4918,1.4917,1.4917,0,1.4063,1.4115,1.4194,1.4273,1.4295,1.4338,1.4406,1.4449,1.4491,1.4555,1.4573,1.4638,1.4705,1.4757,1.4844,1.4869,1.494,1.4951,1.4917,1.4922,1.4945,1.4941,1.5017,1.5029,1.4993,1.4994,1.4994,0,1.4092,1.4136,1.422,1.4257,1.4296,1.4355,1.4396,1.4447,1.4489,1.4566,1.4599,1.4668,1.4725,1.483,1.4885,1.4951,1.4963,1.4984,1.4973,1.4958,1.4961,1.4957,1.4961,1.4985,1.4986,1.4986,1.4986,0,1.4137,1.416,1.4219,1.4286,1.4334,1.439,1.4446,1.4474,1.4535,1.458,1.4648,1.4692,1.478,1.4847,1.4918,1.4959,1.4982,1.4989,1.4998,1.4985,1.4963,1.4974,1.4919,1.4987,1.4987,1.4987,1.4987,1.4987,1.4161,1.4201,1.4266,1.4329,1.4377,1.4428,1.4471,1.4518,1.4575,1.465,1.4676,1.4746,1.4809,1.4907,1.4948,1.5002,1.5004,1.5018,1.5021,1.5024,1.5021,1.4955,1.5016,1.5016,1.5016,1.5016,1.5016,0,1.4207,1.425,1.4308,1.4384,1.4434,1.4451,1.4514,1.4554,1.4614,1.4671,1.4726,1.4803,1.4868,1.4927,1.4994,1.5026,1.5039,1.5042,1.504,1.5049,1.5017,1.5001,1.5031,1.5031,1.5031,1.5031,1.5031,1.5031,1.4236,1.4304,1.4335,1.4426,1.4469,1.4536,1.457,1.4617,1.4662,1.4746,1.48,1.4838,1.4896,1.4967,1.5027,1.5043,1.5065,1.5066,1.5084,1.5053,1.5051,1.5049,1.5034,1.5071,1.5071,1.5111,1.5112,1.5112]},{"header":{"parameterUnit":"m.s-1","parameterCategory":1,"la1":30.2991,"la2":30.254,"lo1":-89.0895,"lo2":-89.0444,"dy":0.0017,"dx":0.0017,"nx":28,"ny":28,"refTime":"2024-04-14T03:00:00:Z","depth":0,"parameterNumber":3,"parameterNumberName":"V-component_of_WINDS"},"data":[0,0,0,0,0,0,0,0,0,0,0,0,0,0,0,0,0,0,0,0,0,0,0,0,0,0,0,0,0,0,0,0,0,0,0,0,0,0,0,0,0,0,0,0,0,0,0,0,0,0,0,0,0,0,0,0,0,0,3.522,3.522,0,3.5246,3.5246,3.5247,3.5187,3.5185,3.5183,3.5181,3.5205,3.5207,3.521,0,0,0,0,0,0,0,0,0,0,0,0,0,3.5115,3.5118,3.522,3.522,3.5221,3.5246,3.5246,3.5247,3.5187,3.5185,3.5183,3.518,3.5204,3.5207,3.521,0,0,0,0,0,0,0,0,0,0,0,0,0,3.5153,3.5118,3.522,3.5194,3.5192,3.5246,3.5246,3.5247,3.5188,3.5185,3.5182,3.5179,3.5203,3.5207,3.521,3.5289,0,0,3.5221,3.5223,0,0,0,0,0,0,0,0,3.5151,3.5157,3.5198,3.5196,3.5194,3.521,3.5218,3.5261,3.5188,3.5189,3.5181,3.5178,3.5209,3.5212,3.5223,3.529,3.5291,3.5222,3.5224,3.5225,3.5226,0,0,0,0,0,0,0,3.5148,3.5155,3.523,3.5198,3.5196,3.518,3.5182,3.5226,3.5215,3.5189,3.5185,3.5189,3.5207,3.522,3.5223,3.5292,3.5221,3.5225,3.5227,3.5228,3.5423,3.5426,0,0,0,0,0,0,3.515,3.5154,3.5229,3.5231,3.5165,3.5184,3.5187,3.5208,3.5214,3.5212,3.5191,3.5186,3.5215,3.5219,3.5224,3.5315,3.5225,3.5229,3.5231,3.542,3.5424,3.5427,0,0,0,0,0,0,3.5148,3.5157,3.5228,3.5191,3.5199,3.5189,3.5213,3.521,3.5222,3.5216,3.5213,3.5206,3.5213,3.5218,3.5273,3.5315,3.523,3.5234,3.5417,3.5422,3.5426,3.55,0,0,0,0,0,0,3.5145,3.5157,3.5188,3.5192,3.5201,3.5279,3.5216,3.5212,3.5229,3.5222,3.5229,3.5227,3.5211,3.5268,3.5277,3.5319,3.5236,3.5413,3.5419,3.5424,3.5494,3.5506,3.5517,0,0,0,0,0,3.5141,3.5207,3.5189,3.5199,3.524,3.5282,3.5286,3.5267,3.5233,3.5263,3.5258,3.5227,3.5309,3.5274,3.5283,3.5327,3.541,3.5417,3.5424,3.5488,3.5504,3.5517,0,0,0,0,0,0,3.5207,3.5207,3.5188,3.5257,3.527,3.5271,3.5309,3.5285,3.5306,3.5299,3.5273,3.5275,3.5335,3.5336,3.5297,3.5403,3.5354,3.5363,3.54,3.5414,3.5426,3.5424,3.5239,0,0,0,0,0,3.523,3.5264,3.5262,3.5324,3.5331,3.5319,3.5337,3.5321,3.5332,3.5337,3.5337,3.5348,3.5376,3.5395,3.5421,3.5494,3.5493,3.5528,3.554,3.555,3.5557,3.5594,3.5609,3.545,3.545,3.545,0,0,3.5277,3.5281,3.5305,3.5337,3.5345,3.538,3.5324,3.5364,3.5389,3.5343,3.5394,3.5394,3.5405,3.5469,3.5497,3.5472,3.5601,3.5558,3.5566,3.5569,3.5603,3.5618,3.5631,3.5454,3.5454,3.5453,0,0,3.538,3.5388,3.5439,3.5448,3.5461,3.5452,3.5464,3.5469,3.5468,3.5519,3.5485,3.5514,3.5564,3.5572,3.5583,3.5689,3.566,3.5698,3.5759,3.5796,3.5808,3.5819,3.5855,3.5869,3.5706,3.5706,3.5706,0,3.5436,3.5489,3.5468,3.551,3.5525,3.5485,3.5536,3.5545,3.5565,3.5576,3.5548,3.5608,3.5613,3.5677,3.5703,3.5714,3.5726,3.5697,3.5808,3.5819,3.5829,3.5863,3.5877,3.571,3.571,3.571,3.5709,0,3.5557,3.5594,3.5634,3.5655,3.5674,3.572,3.5705,3.5727,3.5709,3.5703,3.5754,3.5759,3.5784,3.5798,3.5781,3.586,3.5844,3.5813,3.5763,3.5849,3.588,3.5894,3.5717,3.5715,3.5714,3.5713,0,0,3.5702,3.5711,3.5726,3.5734,3.5745,3.5772,3.5816,3.5841,3.5859,3.5874,3.5909,3.5952,3.5923,3.5935,3.5919,3.5951,3.6032,3.5915,3.5915,3.5936,3.6117,3.614,3.6156,3.6014,3.6016,3.6018,3.6116,0,3.5803,3.5879,3.5861,3.5936,3.5969,3.5931,3.5968,3.5978,3.5974,3.6,3.5994,3.6024,3.5984,3.5991,3.6021,3.6016,3.6068,3.6009,3.6045,3.6046,3.6042,3.6172,3.6196,3.6289,3.6128,3.613,3.6132,0,3.5932,3.5952,3.603,3.6034,3.6047,3.6081,3.6102,3.6128,3.6138,3.6132,3.6146,3.6123,3.6164,3.6115,3.6171,3.6131,3.6144,3.6144,3.6147,3.6149,3.6094,3.6176,3.6318,3.6331,3.6152,3.615,3.6149,0,3.6028,3.6075,3.6127,3.6135,3.6142,3.6167,3.617,3.6177,3.6193,3.6211,3.6221,3.6243,3.6256,3.6273,3.6256,3.6222,3.6314,3.6264,3.6309,3.631,3.633,3.6328,3.6474,3.6341,3.634,3.634,3.634,0,3.6142,3.6191,3.617,3.6202,3.6255,3.6233,3.6286,3.6285,3.6292,3.6322,3.629,3.6319,3.6295,3.6322,3.6308,3.6356,3.6362,3.6357,3.6353,3.636,3.636,3.6367,3.636,3.6344,3.6343,3.6342,3.6342,0,3.6258,3.6247,3.6301,3.6302,3.6304,3.6343,3.6343,3.6372,3.6365,3.6403,3.6411,3.64,3.6429,3.6414,3.6444,3.6435,3.6496,3.6484,3.6493,3.649,3.6536,3.6531,3.669,3.6709,3.6565,3.6566,3.6567,0,3.6331,3.6368,3.6373,3.6392,3.6397,3.6427,3.6443,3.6423,3.644,3.6454,3.6481,3.6507,3.6528,3.6576,3.6569,3.6592,3.6579,3.6633,3.6582,3.6587,3.6578,3.6576,3.6579,3.6643,3.6645,3.6646,3.6648,0,3.6462,3.6454,3.6479,3.6501,3.6521,3.6538,3.6552,3.6568,3.6548,3.6569,3.6599,3.6615,3.6645,3.6672,3.6691,3.6693,3.6667,3.6664,3.6675,3.6682,3.6685,3.6683,3.652,3.666,3.6659,3.6658,3.6657,3.6657,3.6558,3.6588,3.6596,3.6624,3.6632,3.6646,3.6673,3.6669,3.6693,3.6717,3.6703,3.6738,3.6745,3.6769,3.6774,3.68,3.6778,3.6795,3.6799,3.6804,3.6809,3.6682,3.6804,3.6803,3.6803,3.6803,3.6802,0,3.6685,3.6688,3.6714,3.6735,3.6756,3.673,3.6744,3.6764,3.6795,3.6804,3.6824,3.6858,3.6883,3.6879,3.6901,3.6923,3.6911,3.6929,3.6927,3.6927,3.6828,3.6815,3.6938,3.6938,3.6938,3.6938,3.6938,3.6938,3.6754,3.6803,3.6796,3.6848,3.6851,3.6885,3.6895,3.6906,3.6913,3.6952,3.6973,3.6971,3.6974,3.6996,3.7018,3.7016,3.7025,3.7047,3.7041,3.6948,3.6935,3.6922,3.6909,3.705,3.705,3.7138,3.7138,3.7139]}]]